Time,TemperatureF,DewpointF,PressureIn,WindDirection,WindDirectionDegrees,WindSpeedMPH,WindSpeedGustMPH,Humidity,HourlyPrecipIn,Conditions,Clouds,dailyrainin,SoftwareType,DateUTC
2013-05-26 00:05:00,50.1,35.9,30.31,ESE,102,4.0,4.0,58,0.00,,,0.00,Wunderground v.1.15,2013-05-26 04:05:00,
2013-05-26 00:10:00,50.1,37.2,30.31,ESE,104,3.0,4.0,61,0.00,,,0.00,Wunderground v.1.15,2013-05-26 04:10:00,
2013-05-26 00:16:00,49.9,37.4,30.31,ESE,104,1.0,1.0,62,0.00,,,0.00,Wunderground v.1.15,2013-05-26 04:16:00,
2013-05-26 00:20:00,49.7,36.8,30.31,ESE,104,1.0,2.0,61,0.00,,,0.00,Wunderground v.1.15,2013-05-26 04:20:00,
2013-05-26 00:26:00,49.5,36.6,30.30,SSE,155,2.0,3.0,61,0.00,,,0.00,Wunderground v.1.15,2013-05-26 04:26:00,
2013-05-26 00:36:00,49.6,36.7,30.30,SSE,155,1.0,3.0,61,0.00,,,0.00,Wunderground v.1.15,2013-05-26 04:36:00,
2013-05-26 00:50:00,49.7,36.4,30.30,SSE,155,1.0,1.0,60,0.00,,,0.00,Wunderground v.1.15,2013-05-26 04:50:00,
2013-05-26 01:01:00,49.8,37.3,30.30,SSE,155,0.0,0.0,62,0.00,,,0.00,Wunderground v.1.15,2013-05-26 05:01:00,
2013-05-26 01:11:00,49.7,37.2,30.30,SSE,155,0.0,0.0,62,0.00,,,0.00,Wunderground v.1.15,2013-05-26 05:11:00,
2013-05-26 01:16:00,49.7,37.2,30.30,SSE,155,0.0,0.0,62,0.00,,,0.00,Wunderground v.1.15,2013-05-26 05:16:00,
2013-05-26 01:26:00,49.7,38.0,30.30,SSE,155,1.0,2.0,64,0.00,,,0.00,Wunderground v.1.15,2013-05-26 05:26:00,
2013-05-26 01:36:00,49.5,37.4,30.30,SSE,155,0.0,1.0,63,0.00,,,0.00,Wunderground v.1.15,2013-05-26 05:36:00,
2013-05-26 01:46:00,49.5,37.4,30.30,SSE,155,0.0,0.0,63,0.00,,,0.00,Wunderground v.1.15,2013-05-26 05:46:00,
2013-05-26 01:55:00,49.2,37.5,30.29,SSE,155,0.0,0.0,64,0.00,,,0.00,Wunderground v.1.15,2013-05-26 05:55:00,
2013-05-26 02:00:00,49.0,39.3,30.29,SSE,155,0.0,0.0,69,0.00,,,0.00,Wunderground v.1.15,2013-05-26 06:00:00,
2013-05-26 02:05:00,48.5,39.2,30.29,SSE,155,0.0,0.0,70,0.00,,,0.00,Wunderground v.1.15,2013-05-26 06:05:00,
2013-05-26 02:11:00,48.1,38.4,30.29,SSE,155,0.0,0.0,69,0.00,,,0.00,Wunderground v.1.15,2013-05-26 06:11:00,
2013-05-26 02:21:00,47.7,38.8,30.29,SSE,155,0.0,0.0,71,0.00,,,0.00,Wunderground v.1.15,2013-05-26 06:21:00,
2013-05-26 02:26:00,47.7,36.9,30.29,SSE,155,0.0,0.0,66,0.00,,,0.00,Wunderground v.1.15,2013-05-26 06:26:00,
2013-05-26 02:36:00,48.1,36.5,30.29,SSE,155,0.0,0.0,64,0.00,,,0.00,Wunderground v.1.15,2013-05-26 06:36:00,
2013-05-26 02:41:00,47.8,38.1,30.30,SSE,155,0.0,0.0,69,0.00,,,0.00,Wunderground v.1.15,2013-05-26 06:41:00,
2013-05-26 02:51:00,46.6,38.8,30.29,SSE,155,0.0,0.0,74,0.00,,,0.00,Wunderground v.1.15,2013-05-26 06:51:00,
2013-05-26 03:01:00,46.1,39.6,30.29,SSE,155,0.0,0.0,78,0.00,,,0.00,Wunderground v.1.15,2013-05-26 07:01:00,
2013-05-26 03:06:00,45.9,39.4,30.29,SSE,155,0.0,0.0,78,0.00,,,0.00,Wunderground v.1.15,2013-05-26 07:06:00,
2013-05-26 03:16:00,45.6,39.5,30.29,SSE,155,0.0,0.0,79,0.00,,,0.00,Wunderground v.1.15,2013-05-26 07:16:00,
2013-05-26 03:25:00,45.2,38.7,30.29,SSE,155,0.0,0.0,78,0.00,,,0.00,Wunderground v.1.15,2013-05-26 07:25:00,
2013-05-26 03:31:00,45.1,39.0,30.29,SSE,155,0.0,0.0,79,0.00,,,0.00,Wunderground v.1.15,2013-05-26 07:31:00,
2013-05-26 03:41:00,45.1,39.3,30.29,SSE,155,0.0,0.0,80,0.00,,,0.00,Wunderground v.1.15,2013-05-26 07:41:00,
2013-05-26 03:50:00,44.7,38.9,30.29,SSE,155,0.0,0.0,80,0.00,,,0.00,Wunderground v.1.15,2013-05-26 07:50:00,
2013-05-26 04:01:00,44.5,39.0,30.29,SSE,155,0.0,0.0,81,0.00,,,0.00,Wunderground v.1.15,2013-05-26 08:01:00,
2013-05-26 04:11:00,44.6,38.8,30.29,SSE,155,0.0,0.0,80,0.00,,,0.00,Wunderground v.1.15,2013-05-26 08:11:00,
2013-05-26 04:16:00,44.4,38.6,30.29,SSE,155,0.0,0.0,80,0.00,,,0.00,Wunderground v.1.15,2013-05-26 08:16:00,
2013-05-26 04:25:00,43.8,38.0,30.29,SSE,155,0.0,0.0,80,0.00,,,0.00,Wunderground v.1.15,2013-05-26 08:25:00,
2013-05-26 04:31:00,44.0,37.9,30.29,SSE,155,0.0,0.0,79,0.00,,,0.00,Wunderground v.1.15,2013-05-26 08:31:00,
2013-05-26 04:41:00,43.8,38.0,30.29,SSE,155,0.0,0.0,80,0.00,,,0.00,Wunderground v.1.15,2013-05-26 08:41:00,
2013-05-26 04:50:00,43.3,38.2,30.28,SSE,155,0.0,0.0,82,0.00,,,0.00,Wunderground v.1.15,2013-05-26 08:50:00,
2013-05-26 04:56:00,43.2,38.4,30.28,SSE,155,0.0,0.0,83,0.00,,,0.00,Wunderground v.1.15,2013-05-26 08:56:00,
2013-05-26 05:05:00,43.4,39.2,30.28,SSE,155,0.0,0.0,85,0.00,,,0.00,Wunderground v.1.15,2013-05-26 09:05:00,
2013-05-26 05:10:00,43.4,39.2,30.28,SSE,155,0.0,1.0,85,0.00,,,0.00,Wunderground v.1.15,2013-05-26 09:10:00,
2013-05-26 05:16:00,43.5,39.6,30.29,SSE,155,1.0,2.0,86,0.00,,,0.00,Wunderground v.1.15,2013-05-26 09:16:00,
2013-05-26 05:21:00,43.5,39.9,30.29,SSE,156,1.0,2.0,87,0.00,,,0.00,Wunderground v.1.15,2013-05-26 09:21:00,
2013-05-26 05:31:00,43.4,40.1,30.30,South,170,1.0,1.0,88,0.00,,,0.00,Wunderground v.1.15,2013-05-26 09:31:00,
2013-05-26 05:40:00,43.2,39.9,30.30,South,170,0.0,1.0,88,0.00,,,0.00,Wunderground v.1.15,2013-05-26 09:40:00,
2013-05-26 05:45:00,43.1,40.1,30.29,South,170,0.0,1.0,89,0.00,,,0.00,Wunderground v.1.15,2013-05-26 09:45:00,
2013-05-26 05:50:00,43.0,40.0,30.30,South,170,0.0,0.0,89,0.00,,,0.00,Wunderground v.1.15,2013-05-26 09:50:00,
2013-05-26 05:56:00,42.8,39.8,30.30,South,170,0.0,0.0,89,0.00,,,0.00,Wunderground v.1.15,2013-05-26 09:56:00,
2013-05-26 06:06:00,42.6,39.6,30.30,South,170,0.0,0.0,89,0.00,,,0.00,Wunderground v.1.15,2013-05-26 10:06:00,
2013-05-26 06:16:00,42.3,39.3,30.30,South,170,0.0,1.0,89,0.00,,,0.00,Wunderground v.1.15,2013-05-26 10:16:00,
2013-05-26 06:26:00,42.0,39.0,30.31,NNE,27,0.0,1.0,89,0.00,,,0.00,Wunderground v.1.15,2013-05-26 10:26:00,
2013-05-26 06:36:00,41.9,39.2,30.31,NNE,27,0.0,1.0,90,0.00,,,0.00,Wunderground v.1.15,2013-05-26 10:36:00,
2013-05-26 06:41:00,41.9,39.5,30.31,NNE,27,0.0,0.0,91,0.00,,,0.00,Wunderground v.1.15,2013-05-26 10:41:00,
2013-05-26 06:50:00,42.1,39.7,30.31,NNE,27,0.0,0.0,91,0.00,,,0.00,Wunderground v.1.15,2013-05-26 10:50:00,
2013-05-26 06:55:00,42.1,39.7,30.31,NNE,27,0.0,2.0,91,0.00,,,0.00,Wunderground v.1.15,2013-05-26 10:55:00,
2013-05-26 07:01:00,42.3,39.9,30.31,NNE,27,1.0,2.0,91,0.00,,,0.00,Wunderground v.1.15,2013-05-26 11:01:00,
2013-05-26 07:10:00,42.8,40.4,30.32,NNE,27,2.0,2.0,91,0.00,,,0.00,Wunderground v.1.15,2013-05-26 11:10:00,
2013-05-26 07:16:00,43.2,40.8,30.32,North,5,2.0,3.0,91,0.00,,,0.00,Wunderground v.1.15,2013-05-26 11:16:00,
2013-05-26 07:26:00,44.0,40.7,30.32,North,5,3.0,3.0,88,0.00,,,0.00,Wunderground v.1.15,2013-05-26 11:26:00,
2013-05-26 07:36:00,44.8,41.2,30.32,North,5,2.0,2.0,87,0.00,,,0.00,Wunderground v.1.15,2013-05-26 11:36:00,
2013-05-26 07:46:00,45.7,41.1,30.32,North,5,2.0,2.0,84,0.00,,,0.00,Wunderground v.1.15,2013-05-26 11:46:00,
2013-05-26 07:56:00,46.4,41.5,30.32,North,5,3.0,3.0,83,0.00,,,0.00,Wunderground v.1.15,2013-05-26 11:56:00,
2013-05-26 08:05:00,47.2,42.0,30.32,North,5,3.0,3.0,82,0.00,,,0.00,Wunderground v.1.15,2013-05-26 12:05:00,
2013-05-26 08:11:00,47.7,42.5,30.33,North,5,3.0,3.0,82,0.00,,,0.00,Wunderground v.1.15,2013-05-26 12:11:00,
2013-05-26 08:16:00,48.0,42.4,30.32,North,5,3.0,3.0,81,0.00,,,0.00,Wunderground v.1.15,2013-05-26 12:16:00,
2013-05-26 08:26:00,48.8,42.6,30.32,North,9,3.0,3.0,79,0.00,,,0.00,Wunderground v.1.15,2013-05-26 12:26:00,
2013-05-26 08:31:00,49.2,43.0,30.32,North,9,3.0,3.0,79,0.00,,,0.00,Wunderground v.1.15,2013-05-26 12:31:00,
2013-05-26 08:36:00,49.6,43.4,30.32,North,9,2.0,3.0,79,0.00,,,0.00,Wunderground v.1.15,2013-05-26 12:36:00,
2013-05-26 08:46:00,50.3,43.0,30.33,North,349,2.0,3.0,76,0.00,,,0.00,Wunderground v.1.15,2013-05-26 12:46:00,
2013-05-26 08:56:00,51.2,43.9,30.34,North,350,2.0,4.0,76,0.00,,,0.00,Wunderground v.1.15,2013-05-26 12:56:00,
2013-05-26 09:06:00,52.0,44.0,30.34,WNW,300,2.0,4.0,74,0.00,,,0.00,Wunderground v.1.15,2013-05-26 13:06:00,
2013-05-26 09:15:00,52.5,43.0,30.34,WNW,300,2.0,2.0,70,0.00,,,0.00,Wunderground v.1.15,2013-05-26 13:15:00,
2013-05-26 09:26:00,52.8,41.0,30.33,WNW,300,1.0,2.0,64,0.00,,,0.00,Wunderground v.1.15,2013-05-26 13:26:00,
2013-05-26 09:31:00,53.3,43.0,30.34,WNW,300,1.0,2.0,68,0.00,,,0.00,Wunderground v.1.15,2013-05-26 13:31:00,
2013-05-26 09:41:00,53.9,44.3,30.33,WNW,300,1.0,2.0,70,0.00,,,0.00,Wunderground v.1.15,2013-05-26 13:41:00,
2013-05-26 09:51:00,55.1,43.1,30.33,WNW,300,1.0,1.0,64,0.00,,,0.00,Wunderground v.1.15,2013-05-26 13:51:00,
2013-05-26 10:01:00,56.4,44.0,30.32,WNW,300,0.0,0.0,63,0.00,,,0.00,Wunderground v.1.15,2013-05-26 14:01:00,
2013-05-26 10:06:00,57.0,41.4,30.32,WNW,300,0.0,0.0,56,0.00,,,0.00,Wunderground v.1.15,2013-05-26 14:06:00,
2013-05-26 10:16:00,57.9,36.7,30.32,North,360,2.0,2.0,45,0.00,,,0.00,Wunderground v.1.15,2013-05-26 14:16:00,
2013-05-26 10:21:00,58.3,38.1,30.32,NNE,22,1.0,1.0,47,0.00,,,0.00,Wunderground v.1.15,2013-05-26 14:21:00,
2013-05-26 10:31:00,59.0,36.5,30.33,NNE,30,1.0,2.0,43,0.00,,,0.00,Wunderground v.1.15,2013-05-26 14:31:00,
2013-05-26 10:41:00,59.4,36.9,30.32,NNE,19,3.0,3.0,43,0.00,,,0.00,Wunderground v.1.15,2013-05-26 14:41:00,
2013-05-26 10:51:00,59.5,37.0,30.32,NE,38,3.0,3.0,43,0.00,,,0.00,Wunderground v.1.15,2013-05-26 14:51:00,
2013-05-26 10:56:00,59.5,37.6,30.31,NNW,345,3.0,4.0,44,0.00,,,0.00,Wunderground v.1.15,2013-05-26 14:56:00,
2013-05-26 11:01:00,59.4,39.1,30.31,NW,306,3.0,3.0,47,0.00,,,0.00,Wunderground v.1.15,2013-05-26 15:01:00,
2013-05-26 11:10:00,59.7,39.4,30.31,North,351,3.0,3.0,47,0.00,,,0.00,Wunderground v.1.15,2013-05-26 15:10:00,
2013-05-26 11:16:00,59.9,39.6,30.31,North,350,3.0,3.0,47,0.00,,,0.00,Wunderground v.1.15,2013-05-26 15:16:00,
2013-05-26 11:26:00,60.0,38.6,30.31,ENE,77,2.0,4.0,45,0.00,,,0.00,Wunderground v.1.15,2013-05-26 15:26:00,
2013-05-26 11:35:00,60.3,41.0,30.31,ENE,70,2.0,2.0,49,0.00,,,0.00,Wunderground v.1.15,2013-05-26 15:35:00,
2013-05-26 11:45:00,60.8,39.9,30.31,NE,34,2.0,2.0,46,0.00,,,0.00,Wunderground v.1.15,2013-05-26 15:45:00,
2013-05-26 11:51:00,61.1,40.1,30.31,NNE,32,2.0,5.0,46,0.00,,,0.00,Wunderground v.1.15,2013-05-26 15:51:00,
2013-05-26 12:01:00,61.2,40.2,30.31,ENE,60,2.0,3.0,46,0.00,,,0.00,Wunderground v.1.15,2013-05-26 16:01:00,
2013-05-26 12:10:00,61.5,39.9,30.31,ENE,77,3.0,3.0,45,0.00,,,0.00,Wunderground v.1.15,2013-05-26 16:10:00,
2013-05-26 12:16:00,61.9,40.3,30.31,East,94,3.0,3.0,45,0.00,,,0.00,Wunderground v.1.15,2013-05-26 16:16:00,
2013-05-26 12:25:00,62.5,39.7,30.31,ENE,77,3.0,5.0,43,0.00,,,0.00,Wunderground v.1.15,2013-05-26 16:25:00,
2013-05-26 12:31:00,62.5,39.1,30.31,East,92,3.0,4.0,42,0.00,,,0.00,Wunderground v.1.15,2013-05-26 16:31:00,
2013-05-26 12:40:00,62.1,39.9,30.30,WSW,250,2.0,6.0,44,0.00,,,0.00,Wunderground v.1.15,2013-05-26 16:40:00,
2013-05-26 12:45:00,62.3,41.2,30.30,West,271,2.0,6.0,46,0.00,,,0.00,Wunderground v.1.15,2013-05-26 16:45:00,
2013-05-26 12:51:00,62.4,40.2,30.30,West,259,3.0,5.0,44,0.00,,,0.00,Wunderground v.1.15,2013-05-26 16:51:00,
2013-05-26 13:01:00,62.9,41.2,30.30,WSW,250,3.0,5.0,45,0.00,,,0.00,Wunderground v.1.15,2013-05-26 17:01:00,
2013-05-26 13:10:00,62.6,41.5,30.30,NW,306,5.0,5.0,46,0.00,,,0.00,Wunderground v.1.15,2013-05-26 17:10:00,
2013-05-26 13:16:00,63.0,40.1,30.30,SE,133,2.0,5.0,43,0.00,,,0.00,Wunderground v.1.15,2013-05-26 17:16:00,
2013-05-26 13:26:00,63.0,39.5,30.30,SE,140,2.0,4.0,42,0.00,,,0.00,Wunderground v.1.15,2013-05-26 17:26:00,
2013-05-26 13:31:00,63.2,39.7,30.30,NE,42,3.0,6.0,42,0.00,,,0.00,Wunderground v.1.15,2013-05-26 17:31:00,
2013-05-26 13:36:00,63.5,41.8,30.29,SE,133,4.0,6.0,45,0.00,,,0.00,Wunderground v.1.15,2013-05-26 17:36:00,
2013-05-26 13:45:00,63.6,41.9,30.29,SE,137,5.0,5.0,45,0.00,,,0.00,Wunderground v.1.15,2013-05-26 17:45:00,
2013-05-26 13:51:00,63.3,40.4,30.29,ESE,105,5.0,6.0,43,0.00,,,0.00,Wunderground v.1.15,2013-05-26 17:51:00,
2013-05-26 13:56:00,63.2,39.7,30.28,East,88,5.0,6.0,42,0.00,,,0.00,Wunderground v.1.15,2013-05-26 17:56:00,
2013-05-26 14:05:00,63.7,42.5,30.28,West,277,3.0,4.0,46,0.00,,,0.00,Wunderground v.1.15,2013-05-26 18:05:00,
2013-05-26 14:11:00,63.9,40.3,30.28,SE,136,3.0,3.0,42,0.00,,,0.00,Wunderground v.1.15,2013-05-26 18:11:00,
2013-05-26 14:16:00,64.0,40.4,30.28,SE,132,2.0,5.0,42,0.00,,,0.00,Wunderground v.1.15,2013-05-26 18:16:00,
2013-05-26 14:25:00,64.2,40.6,30.28,ESE,119,3.0,5.0,42,0.00,,,0.00,Wunderground v.1.15,2013-05-26 18:25:00,
2013-05-26 14:30:00,64.4,40.8,30.28,SSE,162,3.0,4.0,42,0.00,,,0.00,Wunderground v.1.15,2013-05-26 18:30:00,
2013-05-26 14:36:00,64.4,40.2,30.27,SE,138,2.0,4.0,41,0.00,,,0.00,Wunderground v.1.15,2013-05-26 18:36:00,
2013-05-26 14:46:00,65.4,42.3,30.27,SE,146,1.0,5.0,43,0.00,,,0.00,Wunderground v.1.15,2013-05-26 18:46:00,
2013-05-26 14:55:00,65.2,41.5,30.28,ESE,109,3.0,5.0,42,0.00,,,0.00,Wunderground v.1.15,2013-05-26 18:55:00,
2013-05-26 15:01:00,64.9,40.0,30.27,East,88,3.0,3.0,40,0.00,,,0.00,Wunderground v.1.15,2013-05-26 19:01:00,
2013-05-26 15:10:00,65.0,40.1,30.26,ESE,111,2.0,2.0,40,0.00,,,0.00,Wunderground v.1.15,2013-05-26 19:10:00,
2013-05-26 15:16:00,65.2,41.5,30.26,ESE,111,1.0,2.0,42,0.00,,,0.00,Wunderground v.1.15,2013-05-26 19:16:00,
2013-05-26 15:20:00,65.6,41.9,30.26,NE,50,1.0,5.0,42,0.00,,,0.00,Wunderground v.1.15,2013-05-26 19:20:00,
2013-05-26 15:26:00,65.7,41.3,30.26,NE,48,3.0,5.0,41,0.00,,,0.00,Wunderground v.1.15,2013-05-26 19:26:00,
2013-05-26 15:36:00,65.4,40.4,30.26,ENE,61,6.0,8.0,40,0.00,,,0.00,Wunderground v.1.15,2013-05-26 19:36:00,
2013-05-26 15:45:00,65.1,40.8,30.26,East,85,4.0,5.0,41,0.00,,,0.00,Wunderground v.1.15,2013-05-26 19:45:00,
2013-05-26 15:51:00,64.9,40.0,30.26,East,91,4.0,4.0,40,0.00,,,0.00,Wunderground v.1.15,2013-05-26 19:51:00,
2013-05-26 15:56:00,64.7,39.8,30.26,East,101,4.0,4.0,40,0.00,,,0.00,Wunderground v.1.15,2013-05-26 19:56:00,
2013-05-26 16:01:00,64.8,39.9,30.25,East,94,3.0,3.0,40,0.00,,,0.00,Wunderground v.1.15,2013-05-26 20:01:00,
2013-05-26 16:06:00,65.1,40.8,30.25,East,94,1.0,3.0,41,0.00,,,0.00,Wunderground v.1.15,2013-05-26 20:06:00,
2013-05-26 16:21:00,65.9,40.2,30.25,East,85,1.0,1.0,39,0.00,,,0.00,Wunderground v.1.15,2013-05-26 20:21:00,
2013-05-26 16:26:00,66.1,40.4,30.25,ENE,67,1.0,2.0,39,0.00,,,0.00,Wunderground v.1.15,2013-05-26 20:26:00,
2013-05-26 16:31:00,66.1,41.7,30.25,East,91,3.0,3.0,41,0.00,,,0.00,Wunderground v.1.15,2013-05-26 20:31:00,
2013-05-26 16:41:00,65.8,42.1,30.24,ENE,65,3.0,5.0,42,0.00,,,0.00,Wunderground v.1.15,2013-05-26 20:41:00,
2013-05-26 16:46:00,66.0,42.2,30.25,ESE,116,4.0,6.0,42,0.00,,,0.00,Wunderground v.1.15,2013-05-26 20:46:00,
2013-05-26 16:56:00,65.5,41.8,30.24,SE,132,3.0,6.0,42,0.00,,,0.00,Wunderground v.1.15,2013-05-26 20:56:00,
2013-05-26 17:05:00,65.6,41.9,30.24,ESE,107,3.0,5.0,42,0.00,,,0.00,Wunderground v.1.15,2013-05-26 21:05:00,
2013-05-26 17:10:00,65.6,41.9,30.24,East,93,4.0,6.0,42,0.00,,,0.00,Wunderground v.1.15,2013-05-26 21:10:00,
2013-05-26 17:16:00,65.3,41.0,30.24,East,87,6.0,7.0,41,0.00,,,0.00,Wunderground v.1.15,2013-05-26 21:16:00,
2013-05-26 17:26:00,65.2,40.9,30.24,SE,129,7.0,9.0,41,0.00,,,0.00,Wunderground v.1.15,2013-05-26 21:26:00,
2013-05-26 17:31:00,64.8,41.2,30.24,East,101,7.0,9.0,42,0.00,,,0.00,Wunderground v.1.15,2013-05-26 21:31:00,
2013-05-26 17:41:00,64.4,41.4,30.24,SSE,153,6.0,6.0,43,0.00,,,0.00,Wunderground v.1.15,2013-05-26 21:41:00,
2013-05-26 17:46:00,64.2,41.2,30.24,East,97,6.0,6.0,43,0.00,,,0.00,Wunderground v.1.15,2013-05-26 21:46:00,
2013-05-26 17:55:00,64.3,41.3,30.23,East,97,5.0,6.0,43,0.00,,,0.00,Wunderground v.1.15,2013-05-26 21:55:00,
2013-05-26 18:01:00,64.2,40.0,30.23,ESE,104,6.0,6.0,41,0.00,,,0.00,Wunderground v.1.15,2013-05-26 22:01:00,
2013-05-26 18:10:00,64.0,39.8,30.23,SE,126,6.0,6.0,41,0.00,,,0.00,Wunderground v.1.15,2013-05-26 22:10:00,
2013-05-26 18:16:00,63.9,39.7,30.23,ESE,105,6.0,9.0,41,0.00,,,0.00,Wunderground v.1.15,2013-05-26 22:16:00,
2013-05-26 18:25:00,63.8,40.3,30.23,East,101,6.0,9.0,42,0.00,,,0.00,Wunderground v.1.15,2013-05-26 22:25:00,
2013-05-26 18:31:00,63.7,40.8,30.23,ESE,103,6.0,6.0,43,0.00,,,0.00,Wunderground v.1.15,2013-05-26 22:31:00,
2013-05-26 18:41:00,63.6,40.7,30.23,ESE,103,6.0,7.0,43,0.00,,,0.00,Wunderground v.1.15,2013-05-26 22:41:00,
2013-05-26 18:50:00,63.5,41.2,30.23,East,100,6.0,6.0,44,0.00,,,0.00,Wunderground v.1.15,2013-05-26 22:50:00,
2013-05-26 18:56:00,63.5,41.2,30.23,ESE,112,5.0,7.0,44,0.00,,,0.00,Wunderground v.1.15,2013-05-26 22:56:00,
2013-05-26 19:06:00,63.4,41.1,30.23,East,98,6.0,7.0,44,0.00,,,0.00,Wunderground v.1.15,2013-05-26 23:06:00,
2013-05-26 19:11:00,63.2,41.5,30.23,ESE,109,6.0,7.0,45,0.00,,,0.00,Wunderground v.1.15,2013-05-26 23:11:00,
2013-05-26 19:16:00,63.1,40.8,30.23,SE,130,6.0,10.0,44,0.00,,,0.00,Wunderground v.1.15,2013-05-26 23:16:00,
2013-05-26 19:26:00,62.7,41.6,30.22,SE,136,6.0,6.0,46,0.00,,,0.00,Wunderground v.1.15,2013-05-26 23:26:00,
2013-05-26 19:31:00,62.6,40.4,30.22,SE,139,5.0,6.0,44,0.00,,,0.00,Wunderground v.1.15,2013-05-26 23:31:00,
2013-05-26 19:40:00,62.4,41.9,30.22,SSE,149,5.0,8.0,47,0.00,,,0.00,Wunderground v.1.15,2013-05-26 23:40:00,
2013-05-26 19:46:00,62.2,40.6,30.22,SE,138,6.0,6.0,45,0.00,,,0.00,Wunderground v.1.15,2013-05-26 23:46:00,
2013-05-26 20:01:00,61.8,41.9,30.22,SE,134,4.0,4.0,48,0.00,,,0.00,Wunderground v.1.15,2013-05-27 00:01:00,
2013-05-26 20:10:00,61.5,42.2,30.22,SE,140,3.0,3.0,49,0.00,,,0.00,Wunderground v.1.15,2013-05-27 00:10:00,
2013-05-26 20:15:00,61.3,42.5,30.22,SE,133,3.0,4.0,50,0.00,,,0.00,Wunderground v.1.15,2013-05-27 00:15:00,
2013-05-26 20:26:00,60.9,41.6,30.21,SE,128,3.0,6.0,49,0.00,,,0.00,Wunderground v.1.15,2013-05-27 00:26:00,
2013-05-26 20:35:00,60.7,41.4,30.21,SE,136,3.0,4.0,49,0.00,,,0.00,Wunderground v.1.15,2013-05-27 00:35:00,
2013-05-26 20:40:00,60.5,41.8,30.21,SE,139,3.0,4.0,50,0.00,,,0.00,Wunderground v.1.15,2013-05-27 00:40:00,
2013-05-26 21:25:00,59.1,40.5,30.21,ESE,105,3.0,3.0,50,0.00,,,0.00,Wunderground v.1.15,2013-05-27 01:25:00,
2013-05-26 21:45:00,58.8,42.7,30.21,East,80,4.0,4.0,55,0.00,,,0.00,Wunderground v.1.15,2013-05-27 01:45:00,
2013-05-26 21:50:00,58.3,44.9,30.21,East,90,4.0,5.0,61,0.00,,,0.00,Wunderground v.1.15,2013-05-27 01:50:00,
2013-05-26 22:15:00,56.3,45.5,30.22,ENE,74,4.0,4.0,67,0.00,,,0.00,Wunderground v.1.15,2013-05-27 02:15:00,
2013-05-26 22:20:00,56.1,45.3,30.22,ENE,67,5.0,5.0,67,0.00,,,0.00,Wunderground v.1.15,2013-05-27 02:20:00,
2013-05-26 22:26:00,55.9,45.5,30.22,East,92,4.0,4.0,68,0.00,,,0.00,Wunderground v.1.15,2013-05-27 02:26:00,
2013-05-26 22:35:00,55.5,45.1,30.22,ENE,71,3.0,6.0,68,0.00,,,0.00,Wunderground v.1.15,2013-05-27 02:35:00,
2013-05-26 22:50:00,55.1,45.5,30.22,East,84,3.0,3.0,70,0.00,,,0.00,Wunderground v.1.15,2013-05-27 02:50:00,
2013-05-26 23:10:00,54.5,45.3,30.22,ENE,61,4.0,4.0,71,0.00,,,0.00,Wunderground v.1.15,2013-05-27 03:10:00,
2013-05-26 23:21:00,54.0,45.2,30.22,ENE,63,3.0,3.0,72,0.00,,,0.00,Wunderground v.1.15,2013-05-27 03:21:00,
2013-05-26 23:31:00,53.9,45.1,30.22,East,97,2.0,3.0,72,0.00,,,0.00,Wunderground v.1.15,2013-05-27 03:31:00,
2013-05-26 23:36:00,53.8,45.3,30.22,East,96,3.0,3.0,73,0.00,,,0.00,Wunderground v.1.15,2013-05-27 03:36:00,
2013-05-26 23:46:00,53.5,45.4,30.22,East,101,2.0,3.0,74,0.00,,,0.00,Wunderground v.1.15,2013-05-27 03:46:00,
2013-05-26 23:55:00,53.3,45.2,30.23,East,82,2.0,3.0,74,0.00,,,0.00,Wunderground v.1.15,2013-05-27 03:55:00,